Decatur, IL

4:01 PM CDT on September 22, 2017 (GMT -0500)
Decatur

Weather History for KDEC - October, 2012

Change the Weather History Date:

Friday, October 19, 2012

  Actual Average Record
Temperature  
Mean Temperature 49 °F 53 °F  
Max Temperature 52 °F 65 °F 78 °F (2003)
Min Temperature 46 °F 42 °F 30 °F (1996)
Degree Days  
Heating Degree Days 16 12  
Month to date heating degree days 218 180  
Since 1 July heating degree days 298 253  
Cooling Degree Days 0 0  
Month to date cooling degree days 1 14  
Year to date cooling degree days 1422 1043  
Moisture  
Dew Point 45 °F    
Average Humidity 86    
Maximum Humidity 100    
Minimum Humidity 71    
Precipitation  
Precipitation 0.05 in 0.11 in 0.39 in (2011)
Month to date precipitation 2.03 1.90  
Year to date precipitation 21.15 31.10  
Sea Level Pressure  
Sea Level Pressure 29.59 in    
Wind  
Wind Speed 12 mph (WSW)    
Max Wind Speed 20 mph    
Max Gust Speed 31 mph    
Visibility 9 miles    
Events Rain    
T = Trace of Precipitation, MM = Missing Value Source: NWS Daily Summary

Daily Weather History Graph

Daily Weather History Graph

Search for Another Location

Airport or City:

Trip Planner

Search our weather history database for the weather conditions in past years. The results will help you decide how hot, cold, wet, or windy it might be!

Date:

Astronomy

Oct. 19, 2012 Rise Set
Actual Time 7:10 AM CDT 6:09 PM CDT
Civil Twilight 6:43 AM CDT 6:36 PM CDT
Nautical Twilight 6:11 AM CDT 7:08 PM CDT
Astronomical Twilight 5:40 AM CDT 7:39 PM CDT
Moon 11:53 AM CDT (10/19) 9:48 PM CDT (10/19)
Length of Visible Light 11h 53m
Length of Day
10h 59m
Waxing Crescent, 24% of the Moon is Illuminated
Oct 19
Waxing Crescent
Oct 21
First Quarter
Oct 29
Full
Nov 6
Last Quarter
Nov 13
New

Hourly Weather History & Observations

Time (CDT) Temp. Windchill Dew Point Humidity Pressure Visibility Wind Dir Wind Speed Gust Speed Precip Events Conditions
12:41 AM 46.4 °F 39.5 °F 44.6 °F 93% 29.51 in 10.0 mi SW 17.3 mph 23.0 mph 0.02 in Rain Light Rain
12:54 AM 46.0 °F 39.3 °F 44.1 °F 93% 29.51 in 10.0 mi SSW 16.1 mph 23.0 mph 0.02 in Rain Light Rain
1:24 AM 46.4 °F 39.8 °F 44.6 °F 93% 29.50 in 10.0 mi SSW 16.1 mph - 0.01 in Rain Light Rain
1:33 AM 46.4 °F 40.4 °F 44.6 °F 93% 29.50 in 10.0 mi SSW 13.8 mph - 0.01 in Rain Light Rain
1:54 AM 46.0 °F 40.2 °F 45.0 °F 96% 29.49 in 10.0 mi SW 12.7 mph - 0.01 in Rain Light Rain
2:40 AM 46.4 °F 40.4 °F 44.6 °F 93% 29.48 in 10.0 mi SW 13.8 mph - 0.01 in Rain Light Rain
2:49 AM 46.4 °F 40.4 °F 44.6 °F 93% 29.48 in 8.0 mi SW 13.8 mph - 0.01 in Rain Light Rain
2:54 AM 46.0 °F 40.2 °F 45.0 °F 96% 29.48 in 9.0 mi SW 12.7 mph - 0.01 in Rain Light Rain
3:54 AM 46.0 °F 39.0 °F 46.0 °F 100% 29.48 in 6.0 mi SW 17.3 mph 25.3 mph 0.01 in   Overcast
4:54 AM 46.9 °F - 46.0 °F 97% 29.49 in 4.0 mi SW 16.1 mph - 0.00 in   Overcast
5:54 AM 46.9 °F - 46.0 °F 97% 29.50 in 10.0 mi WSW 15.0 mph - N/A   Overcast
6:03 AM 46.4 °F 40.4 °F 46.4 °F 100% 29.50 in 9.0 mi WSW 13.8 mph 21.9 mph N/A   Overcast
6:54 AM 46.0 °F 39.9 °F 45.0 °F 96% 29.51 in 10.0 mi WSW 13.8 mph 20.7 mph 0.00 in Rain Light Rain
7:54 AM 46.0 °F 39.9 °F 45.0 °F 96% 29.52 in 9.0 mi WSW 13.8 mph - 0.01 in   Overcast
8:54 AM 46.0 °F 41.4 °F 44.1 °F 93% 29.54 in 10.0 mi West 9.2 mph - 0.00 in   Overcast
9:54 AM 46.0 °F 39.9 °F 44.1 °F 93% 29.55 in 10.0 mi WSW 13.8 mph 18.4 mph N/A   Overcast
10:54 AM 46.9 °F - 44.1 °F 90% 29.57 in 10.0 mi West 10.4 mph 18.4 mph N/A   Overcast
11:54 AM 48.0 °F - 44.1 °F 86% 29.58 in 10.0 mi WSW 11.5 mph - 0.00 in   Overcast
12:03 PM 46.4 °F 41.1 °F 44.6 °F 93% 29.58 in 7.0 mi West 11.5 mph - 0.00 in Rain Light Rain
12:19 PM 46.4 °F 41.9 °F 46.4 °F 100% 29.58 in 4.0 mi West 9.2 mph - 0.00 in Rain Light Rain
12:54 PM 46.9 °F - 45.0 °F 93% 29.59 in 6.0 mi West 11.5 mph 20.7 mph 0.00 in Rain Light Rain
1:01 PM 46.4 °F 41.1 °F 46.4 °F 100% 29.58 in 10.0 mi West 11.5 mph - 0.00 in   Overcast
1:16 PM 48.2 °F - 46.4 °F 93% 29.59 in 9.0 mi West 10.4 mph - 0.00 in Rain Light Rain
1:29 PM 48.2 °F - 46.4 °F 93% 29.59 in 10.0 mi WSW 10.4 mph - 0.00 in   Overcast
1:54 PM 48.9 °F - 45.0 °F 86% 29.60 in 10.0 mi West 12.7 mph - 0.00 in   Overcast
2:54 PM 50.0 °F - 44.1 °F 80% 29.62 in 10.0 mi West 11.5 mph 20.7 mph N/A   Overcast
3:54 PM 51.1 °F - 43.0 °F 74% 29.64 in 10.0 mi West 15.0 mph 20.7 mph N/A   Overcast
4:54 PM 51.1 °F - 43.0 °F 74% 29.65 in 10.0 mi West 13.8 mph 21.9 mph N/A   Overcast
5:54 PM 51.1 °F - 43.0 °F 74% 29.67 in 10.0 mi West 11.5 mph - N/A   Overcast
6:54 PM 50.0 °F - 43.0 °F 77% 29.69 in 10.0 mi WSW 8.1 mph - N/A   Overcast
7:54 PM 50.0 °F - 46.0 °F 86% 29.71 in 10.0 mi WSW 8.1 mph - 0.00 in Rain Light Rain
8:54 PM 50.0 °F - 46.0 °F 86% 29.71 in 10.0 mi WSW 11.5 mph - 0.00 in   Overcast
9:40 PM 50.0 °F - 46.4 °F 87% 29.71 in 10.0 mi WSW 12.7 mph 23.0 mph 0.00 in Rain Light Rain
9:54 PM 50.0 °F - 46.9 °F 89% 29.72 in 10.0 mi West 11.5 mph 19.6 mph 0.00 in Rain Light Rain
10:02 PM 50.0 °F - 46.4 °F 87% 29.72 in 10.0 mi West 11.5 mph - 0.01 in Rain Light Rain
10:50 PM 50.0 °F - 46.4 °F 87% 29.72 in 10.0 mi West 13.8 mph 19.6 mph 0.01 in   Overcast
10:54 PM 50.0 °F - 46.0 °F 86% 29.72 in 10.0 mi West 12.7 mph - 0.01 in   Overcast
11:23 PM 50.0 °F - 46.4 °F 87% 29.72 in 10.0 mi West 15.0 mph 21.9 mph N/A   Overcast
11:47 PM 48.2 °F - 46.4 °F 93% 29.73 in 10.0 mi West 12.7 mph 21.9 mph N/A   Overcast
11:54 PM 48.9 °F - 46.0 °F 90% 29.73 in 10.0 mi West 12.7 mph 23.0 mph N/A   Overcast